Content
SEND FEEDBACK

Daily
Averages
Monthly
Summary
United Kingdom

HUCKNALL TORKARD, ENGLAND


Home > Europe > United Kingdom > England
Elevation: 318 feet     Latitude: 53 01N     Longitude: 001 13W

WEATHER
 
SELECT A DAY
Number of Records: 292,238;   Date Range: 7/1/96 - 11/24/14
 
SHARE

PRINT THIS DATA

[ ← Previous Day ]
WEATHER ALMANAC - JANUARY 20, 2014
[ Next Day → ]
[ °C ]   °F
Weather ElementAverageHighLow
Temperature35.6 °F42.8 °F (1:20 pm)28.4 °F (7:20 am)
Dewpoint33.8 °F37.4 °F (12:20 pm)28.4 °F (7:20 am)
Humidity93.3 %100 % (2:50 am)81 % (1:20 pm)
Barometer29.74 in29.86 in (7:20 pm)29.56 in (12:50 am)
Wind Speed3.7 mph5.8 mph (12:50 am)
Weather ElementAverage
Visibility4.8 mi
Wind DirectionSSE (166.7 °)

Weather ElementTotal
Precipitation---
Heating Degree Days29.4 (Base 65)
Averaged from 45 records on January 20, 2014
WEATHER CONDITIONS BREAKOUT
WIND DIRECTION BREAKOUT
WEATHER BY HOUR - JANUARY 20, 2014
[ °C ]   °F
Local TimeTemperatureDewpointHumidityBarometerVisibilityWind DirectionWind SpeedGust SpeedPrecipitationEventsConditions
12:50 AM35.6 °F33.8 °F93 %29.56 inSouth (190°)5.8 mphClear
1:20 AM35.6 °F33.8 °F93 %29.56 inSSW (200°)5.8 mphClear
1:50 AM35.6 °F33.8 °F93 %29.59 inSW (220°)4.6 mphClear
2:20 AM35.6 °F32.0 °F87 %29.59 inSouth (180°)5.8 mphClear
2:50 AM32.0 °F32.0 °F100 %29.59 inVariable3.5 mphClear
3:20 AM32.0 °F30.2 °F93 %29.59 inSSE (150°)5.8 mphClear
3:50 AM32.0 °F32.0 °F100 %29.62 inSouth (180°)5.8 mphClear
4:20 AM33.8 °F32.0 °F93 %29.62 inSW (220°)2.3 mphClear
4:50 AM33.8 °F32.0 °F93 %29.62 inCalmClear
5:20 AM33.8 °F32.0 °F93 %29.65 inCalmClear
5:50 AM32.0 °F32.0 °F100 %29.65 inVariable2.3 mphClear
6:20 AM32.0 °F30.2 °F93 %29.65 inVariable3.5 mphClear
6:50 AM32.0 °F30.2 °F93 %29.68 inSSW (200°)2.3 mphClear
7:20 AM28.4 °F28.4 °F100 %29.68 inSSW (210°)2.3 mphClear
7:50 AM32.0 °F32.0 °F100 %29.68 in3.7 miSSW (210°)3.5 mph
8:20 AM30.2 °F30.2 °F100 %29.71 in3.7 miVariable2.3 mphFogShallow Fog
8:50 AM32.0 °F30.2 °F93 %29.71 in3.7 miWSW (240°)2.3 mphFogFog
9:20 AM33.8 °F33.8 °F100 %29.74 in3.1 miCalmMist
9:50 AM35.6 °F33.8 °F93 %29.74 in3.1 miCalmMist
10:20 AM35.6 °F33.8 °F93 %29.74 in3.1 miNNW (330°)3.5 mphMist
10:50 AM35.6 °F33.8 °F93 %29.77 in3.1 miVariable3.5 mphMist
11:20 AM37.4 °F35.6 °F93 %29.77 in3.1 miVariable2.3 mphMist
11:50 AM39.2 °F35.6 °F87 %29.77 in3.7 miVariable2.3 mph
12:20 PM41.0 °F37.4 °F87 %29.77 in5.0 miWSW (250°)3.5 mph
1:20 PM42.8 °F37.4 °F81 %29.77 in5.0 miWest (280°)4.6 mph
1:50 PM42.8 °F37.4 °F81 %29.77 in5.6 miWest (270°)3.5 mph
2:20 PM42.8 °F37.4 °F81 %29.77 inWNW (300°)4.6 mphClear
2:50 PM42.8 °F37.4 °F81 %29.80 inWNW (290°)4.6 mphClear
3:20 PM42.8 °F37.4 °F81 %29.80 inVariable2.3 mphClear
3:50 PM39.2 °F37.4 °F93 %29.80 inWest (280°)4.6 mphClear
4:20 PM39.2 °F35.6 °F87 %29.80 inWest (270°)5.8 mphClear
5:20 PM37.4 °F35.6 °F93 %29.83 in5.6 miWSW (250°)4.6 mph
5:50 PM37.4 °F35.6 °F93 %29.83 in5.6 miWest (260°)5.8 mph
6:20 PM35.6 °F33.8 °F93 %29.83 inWest (260°)5.8 mphClear
6:50 PM33.8 °F33.8 °F100 %29.83 inWest (270°)5.8 mphClear
7:20 PM35.6 °F33.8 °F93 %29.86 in5.6 miSW (220°)4.6 mph
7:50 PM35.6 °F33.8 °F93 %29.86 inWSW (240°)4.6 mphClear
8:20 PM35.6 °F33.8 °F93 %29.86 in6.2 miWSW (250°)3.5 mphPartly Cloudy
8:50 PM35.6 °F33.8 °F93 %29.86 in6.2 miVariable2.3 mphPartly Cloudy
9:20 PM33.8 °F33.8 °F100 %29.86 in6.2 miSouth (180°)3.5 mphPartly Cloudy
9:50 PM33.8 °F33.8 °F100 %29.86 in6.2 miSW (220°)5.8 mphPartly Cloudy
10:20 PM33.8 °F33.8 °F100 %29.86 in6.2 miSW (220°)4.6 mphPartly Cloudy
10:50 PM33.8 °F33.8 °F100 %29.86 in6.2 miSSW (210°)3.5 mphPartly Cloudy
11:20 PM33.8 °F33.8 °F100 %29.86 in6.2 miSSW (210°)4.6 mphPartly Cloudy
11:50 PM35.6 °F35.6 °F100 %29.86 in4.3 miWSW (240°)2.3 mphMostly Cloudy
Hourly data recorded from EGNX, located miles away from Hucknall Torkard, England







STORIES FROM OUR PARTNERS